[sarex] 2 Line ISS Keps 10-19

Dave Larsen PhD doc at volcano.net
Wed Oct 18 19:56:09 PDT 2006


ISS
1 25544U 98067A   06291.94347929  .00016873  00000-0  10505-3 0  8869
2 25544 051.6335 269.8593 0013010 112.4559 342.8466 15.76990497452684


More information about the SAREX mailing list